WetterOnline ( http://www.wetteronline.de )

Wetter aktuell Litzendorf

Aktuelles Wetter: Bamberg (243m)

6-stündlich | Neueste Meldungen
Ortszeit Temperatur Wetter
So, 17.02. 7:00 -5.6° C wolkig
So, 17.02. 1:00 -4.0° C leicht bewölkt
Sa, 16.02. 19:00 1.4° C wolkenlos
Sa, 16.02. 13:00 9.4° C wolkenlos
Sa, 16.02. 7:00 -6.1° C wolkenlos
Sa, 16.02. 1:00 -3.8° C wolkenlos
Fr, 15.02. 19:00 1.8° C wolkenlos
Fr, 15.02. 13:00 7.9° C wolkenlos
Ortszeit Temperatur Wetter
So, 17.02. 8:00 -5.3° C wolkig
So, 17.02. 7:50 -5.3° C wolkig
So, 17.02. 7:40 -5.9° C wolkig
So, 17.02. 7:30 -5.7° C wolkig
So, 17.02. 7:20 -5.7° C wolkig
So, 17.02. 7:10 -5.7° C wolkig
So, 17.02. 7:00 -5.6° C wolkig
So, 17.02. 6:30 -5.5° C wolkig
So, 17.02. 6:00 -5.0° C leicht bewölkt
So, 17.02. 5:30 -4.8° C wolkig
So, 17.02. 5:00 -5.0° C wolkig
Ortszeit Relative Feuchte Sichtweite
So, 17.02. 7:00 92% 13 km
So, 17.02. 1:00 91% 14 km
Sa, 16.02. 19:00 83% 29 km
Sa, 16.02. 13:00 50% 30 km
Sa, 16.02. 7:00 91% 18 km
Sa, 16.02. 1:00 92% 16 km
Fr, 15.02. 19:00 87% 22 km
Fr, 15.02. 13:00 50% 30 km
Ortszeit Relative Feuchte Sichtweite
So, 17.02. 8:00 93% 15 km
So, 17.02. 7:50 93% -
So, 17.02. 7:40 93% -
So, 17.02. 7:30 91% 14 km
So, 17.02. 7:20 91% -
So, 17.02. 7:10 91% -
So, 17.02. 7:00 92% 13 km
So, 17.02. 6:30 90% 12 km
So, 17.02. 6:00 93% 14 km
So, 17.02. 5:30 93% 12 km
So, 17.02. 5:00 91% 9 km
Ortszeit Niederschlagsmenge Niederschlagsart
So, 17.02. 7:00 0.0 l/m2 in 12 Std. -
So, 17.02. 1:00 0.0 l/m2 in 6 Std. -
Sa, 16.02. 19:00 0.0 l/m2 in 12 Std. -
Sa, 16.02. 13:00 0.0 l/m2 in 6 Std. -
Sa, 16.02. 7:00 0.0 l/m2 in 12 Std. -
Sa, 16.02. 1:00 0.0 l/m2 in 6 Std. -
Fr, 15.02. 19:00 0.0 l/m2 in 12 Std. -
Fr, 15.02. 13:00 0.0 l/m2 in 6 Std. -
Ortszeit Niederschlagsmenge Niederschlagsart
So, 17.02. 8:00 0.0 l/m2 in 1 Std. -
So, 17.02. 7:50 keine Meldung -
So, 17.02. 7:40 keine Meldung -
So, 17.02. 7:30 0.0 l/m2 in 1 Std. -
So, 17.02. 7:20 keine Meldung -
So, 17.02. 7:10 keine Meldung -
So, 17.02. 7:00 0.0 l/m2 in 1 Std. -
So, 17.02. 6:30 0.0 l/m2 in 1 Std. -
So, 17.02. 6:00 0.0 l/m2 in 1 Std. -
So, 17.02. 5:30 0.0 l/m2 in 1 Std. -
So, 17.02. 5:00 0.0 l/m2 in 1 Std. -
Ortszeit Stärke Spitze Richtung
km/h Bft. km/h Grad Sektor
So, 17.02. 7:00 2 1 6 100° O
So, 17.02. 1:00 4 1 4 130° SO
Sa, 16.02. 19:00 4 1 18 120° SO
Sa, 16.02. 13:00 13 3 20 180° S
Sa, 16.02. 7:00 4 1 4 110° O
Sa, 16.02. 1:00 2 1 6 80° O
Fr, 15.02. 19:00 4 1 11 100° O
Fr, 15.02. 13:00 4 1 7 70° O
Ortszeit Stärke Spitze Richtung
km/h Bft. km/h Grad Sektor
So, 17.02. 8:00 2 1 4 70° O
So, 17.02. 7:50 2 1 - 70° O
So, 17.02. 7:40 4 1 - 130° SO
So, 17.02. 7:30 2 1 2 60° NO
So, 17.02. 7:20 2 1 - 60° NO
So, 17.02. 7:10 2 1 - 80° O
So, 17.02. 7:00 2 1 4 100° O
So, 17.02. 6:30 4 1 4 100° O
So, 17.02. 6:00 0 0 4 - -
So, 17.02. 5:30 4 1 4 120° SO
So, 17.02. 5:00 4 1 4 120° SO
Ortszeit Untergrenze Bedeckung Gattung
total tief tief mittel hoch
So, 17.02. 7:00 10500 m 8/8 0/8 - - -
So, 17.02. 1:00 10500 m 5/8 0/8 - - -
Sa, 16.02. 19:00 - 0/8 0/8 - - -
Sa, 16.02. 13:00 - 0/8 0/8 - - -
Sa, 16.02. 7:00 - 0/8 0/8 - - -
Sa, 16.02. 1:00 - 0/8 0/8 - - -
Fr, 15.02. 19:00 - 0/8 0/8 - - -
Fr, 15.02. 13:00 - 0/8 0/8 - - -
Ortszeit Bedeckungsgrad in Achtel und Wolkenuntergrenze
So, 17.02. 8:00 8(10500m)
So, 17.02. 7:50 8(10500m)
So, 17.02. 7:40 8(10500m)
So, 17.02. 7:30 8(10500m)
So, 17.02. 7:20 8(10500m)
So, 17.02. 7:10 8(10500m)
So, 17.02. 7:00 8(10500m)
So, 17.02. 6:30 8(10500m)
So, 17.02. 6:00 6(10500m)
So, 17.02. 5:30 7(10500m)
So, 17.02. 5:00 8(12000m)
Ortszeit Luftdruck NN (hPa) Tendenz (hPa in 3 Std.)
So, 17.02. 7:00 1029 - 0,1
So, 17.02. 1:00 1030 - 0,2
Sa, 16.02. 19:00 1029 0,0
Sa, 16.02. 13:00 1030 - 1,5
Sa, 16.02. 7:00 1033 - 0,3
Sa, 16.02. 1:00 1033 - 0,7
Fr, 15.02. 19:00 1034 - 0,4
Fr, 15.02. 13:00 1036 - 1,4
Ortszeit Luftdruck NN (hPa) Tendenz (hPa in 3 Std.)
So, 17.02. 8:00 1030 + 0,3
So, 17.02. 7:50 1030 keine Meldung
So, 17.02. 7:40 1030 keine Meldung
So, 17.02. 7:30 1030 + 0,2
So, 17.02. 7:20 1030 keine Meldung
So, 17.02. 7:10 1030 keine Meldung
So, 17.02. 7:00 1029 - 0,1
So, 17.02. 6:30 1029 - 0,1
So, 17.02. 6:00 1029 - 0,4
So, 17.02. 5:30 1029 - 0,4
So, 17.02. 5:00 1029 - 0,3
Ortszeit Schneehöhe (cm)
So, 17.02. 7:00 0
So, 17.02. 1:00 0
Sa, 16.02. 19:00 0
Sa, 16.02. 13:00 0
Sa, 16.02. 7:00 0
Sa, 16.02. 1:00 0
Fr, 15.02. 19:00 0
Fr, 15.02. 13:00 0
Ortszeit Schneehöhe (cm)
So, 17.02. 8:00 0
So, 17.02. 7:50 0
So, 17.02. 7:40 0
So, 17.02. 7:30 0
So, 17.02. 7:20 0
So, 17.02. 7:10 0
So, 17.02. 7:00 0
So, 17.02. 6:30 0
So, 17.02. 6:00 0
So, 17.02. 5:30 0
So, 17.02. 5:00 0
Link zu dieser Seite / Seite empfehlen

Das Wetter in ...